DAL2511 KATL-KROC

Flight info

Callsign DAL2511
Flight time 1h 38m
Altitude 37000
Route PADGT2 SMTTH Q67 HNN EWC
Aircraft A320/M-SDE3FGHIRWY/LB1

Departure

Time 2026-04-15 16:16
Airport Hartsfield Jackson Atlanta International Airport (KATL)

Arrival

Time 2026-04-15 17:55
Airport Frederick Douglass Greater Rochester International Airport (KROC)
Time Latitude Longitude Altitude Speed Heading
2026-04-15 15:48 33.64223 -84.42886 1007 ft 0 kts 255°
2026-04-15 15:56 33.64225 -84.42875 1015 ft 2 kts 255°
2026-04-15 15:57 33.64230 -84.42855 1006 ft 2 kts 255°
2026-04-15 15:57 33.64233 -84.42838 1006 ft 0 kts 275°
2026-04-15 15:59 33.64223 -84.42886 1006 ft 0 kts 255°
2026-04-15 16:08 33.64227 -84.42866 1006 ft 2 kts 255°
2026-04-15 16:08 33.64232 -84.42846 1006 ft 2 kts 255°
2026-04-15 16:09 33.64235 -84.42832 1006 ft 0 kts 269°
2026-04-15 16:11 33.64241 -84.42833 1006 ft 2 kts 341°
2026-04-15 16:11 33.64261 -84.42813 1006 ft 4 kts 27°
2026-04-15 16:11 33.64337 -84.42807 1006 ft 17 kts 359°
2026-04-15 16:11 33.64456 -84.42793 1006 ft 17 kts 22°
2026-04-15 16:12 33.64542 -84.42718 1006 ft 15 kts 84°
2026-04-15 16:12 33.64542 -84.42601 1006 ft 13 kts 91°
2026-04-15 16:12 33.64542 -84.42476 1006 ft 20 kts 90°
2026-04-15 16:12 33.64542 -84.42288 1006 ft 23 kts 90°
2026-04-15 16:13 33.64543 -84.42102 1006 ft 21 kts 89°
2026-04-15 16:13 33.64542 -84.41932 1006 ft 19 kts 91°
2026-04-15 16:13 33.64541 -84.41779 1006 ft 18 kts 89°
2026-04-15 16:13 33.64542 -84.41587 1007 ft 25 kts 89°
2026-04-15 16:14 33.64542 -84.41378 1007 ft 25 kts 90°
2026-04-15 16:14 33.64541 -84.41173 1007 ft 25 kts 90°
2026-04-15 16:14 33.64541 -84.40962 1006 ft 21 kts 89°
2026-04-15 16:14 33.64555 -84.40805 1006 ft 18 kts 67°
2026-04-15 16:15 33.64569 -84.40665 1005 ft 16 kts 90°
2026-04-15 16:15 33.64605 -84.40570 1005 ft 12 kts 15°
2026-04-15 16:15 33.64673 -84.40606 1004 ft 12 kts 298°
2026-04-15 16:15 33.64681 -84.40710 1004 ft 15 kts 270°
2026-04-15 16:16 33.64681 -84.41030 1007 ft 72 kts 270°
2026-04-15 16:16 33.64680 -84.41890 1007 ft 132 kts 270°
2026-04-15 16:16 33.64681 -84.43169 1166 ft 162 kts 270°
2026-04-15 16:16 33.64678 -84.44509 1912 ft 162 kts 270°
2026-04-15 16:17 33.64792 -84.45893 2484 ft 171 kts 285°
2026-04-15 16:17 33.65197 -84.47253 3117 ft 177 kts 294°
2026-04-15 16:17 33.65741 -84.48682 3830 ft 197 kts 292°
2026-04-15 16:17 33.66334 -84.50286 4513 ft 223 kts 291°
2026-04-15 16:18 33.66994 -84.52060 5214 ft 248 kts 292°
2026-04-15 16:18 33.67730 -84.54029 6105 ft 265 kts 293°
2026-04-15 16:18 33.68527 -84.56063 7202 ft 274 kts 298°
2026-04-15 16:18 33.69890 -84.57708 8234 ft 288 kts 330°
2026-04-15 16:19 33.71845 -84.58309 9319 ft 297 kts 356°
2026-04-15 16:19 33.73937 -84.58362 10382 ft 304 kts
2026-04-15 16:19 33.76076 -84.58307 11323 ft 314 kts
2026-04-15 16:19 33.78352 -84.58217 11766 ft 343 kts
2026-04-15 16:20 33.80815 -84.58064 12382 ft 355 kts
2026-04-15 16:20 33.83147 -84.57344 14021 ft 338 kts 14°
2026-04-15 16:20 33.85405 -84.56539 14935 ft 347 kts 14°
2026-04-15 16:20 33.87788 -84.55668 15327 ft 367 kts 15°
2026-04-15 16:21 33.90258 -84.54750 15975 ft 378 kts 15°
2026-04-15 16:21 33.92814 -84.53797 16464 ft 391 kts 15°
2026-04-15 16:21 33.95434 -84.52821 17146 ft 397 kts 15°
2026-04-15 16:21 33.98091 -84.51834 17874 ft 401 kts 14°
2026-04-15 16:22 34.00770 -84.50843 18581 ft 405 kts 14°
2026-04-15 16:22 34.03471 -84.49845 19184 ft 408 kts 14°
2026-04-15 16:22 34.06197 -84.48835 19777 ft 412 kts 14°
2026-04-15 16:22 34.08950 -84.47816 20365 ft 415 kts 14°
2026-04-15 16:23 34.11718 -84.46792 20924 ft 418 kts 14°
2026-04-15 16:23 34.14512 -84.45759 21454 ft 421 kts 13°
2026-04-15 16:23 34.17327 -84.44719 21968 ft 425 kts 13°
2026-04-15 16:23 34.20167 -84.43668 22472 ft 427 kts 13°
2026-04-15 16:24 34.23020 -84.42611 22940 ft 430 kts 13°
2026-04-15 16:24 34.25894 -84.41544 23399 ft 433 kts 13°
2026-04-15 16:24 34.28780 -84.40479 23825 ft 435 kts 12°
2026-04-15 16:24 34.31680 -84.39540 24168 ft 437 kts 10°
2026-04-15 16:25 34.34646 -84.38731 24501 ft 438 kts
2026-04-15 16:25 34.37642 -84.38023 24830 ft 440 kts
2026-04-15 16:25 34.40669 -84.37362 25109 ft 443 kts
2026-04-15 16:25 34.43714 -84.36704 25419 ft 445 kts
2026-04-15 16:26 34.46770 -84.36020 25727 ft 448 kts
2026-04-15 16:26 34.49839 -84.35304 26036 ft 451 kts
2026-04-15 16:26 34.52926 -84.34562 26354 ft 453 kts
2026-04-15 16:26 34.56027 -84.33803 26655 ft 456 kts
2026-04-15 16:27 34.59148 -84.33036 26935 ft 458 kts
2026-04-15 16:27 34.62282 -84.32267 27245 ft 461 kts
2026-04-15 16:27 34.65436 -84.31497 27529 ft 463 kts
2026-04-15 16:27 34.68604 -84.30727 27805 ft 465 kts
2026-04-15 16:28 34.71783 -84.29958 28071 ft 467 kts
2026-04-15 16:28 34.74991 -84.29182 28327 ft 469 kts
2026-04-15 16:28 34.78197 -84.28402 28577 ft 471 kts
2026-04-15 16:28 34.81414 -84.27617 28860 ft 472 kts
2026-04-15 16:29 34.84635 -84.26833 29105 ft 473 kts
2026-04-15 16:29 34.87874 -84.26046 29368 ft 475 kts
2026-04-15 16:29 34.91121 -84.25257 29599 ft 476 kts
2026-04-15 16:29 34.94334 -84.24473 29818 ft 478 kts
2026-04-15 16:30 34.97598 -84.23674 30015 ft 480 kts
2026-04-15 16:30 35.00876 -84.22871 30196 ft 481 kts
2026-04-15 16:30 35.04165 -84.22066 30355 ft 483 kts
2026-04-15 16:30 35.07466 -84.21262 30481 ft 484 kts
2026-04-15 16:31 35.10764 -84.20457 30613 ft 484 kts
2026-04-15 16:31 35.14083 -84.19647 30744 ft 485 kts
2026-04-15 16:31 35.17388 -84.18840 30875 ft 486 kts
2026-04-15 16:31 35.20742 -84.18015 30996 ft 487 kts
2026-04-15 16:32 35.24048 -84.17197 31111 ft 487 kts
2026-04-15 16:32 35.27345 -84.16383 31224 ft 488 kts
2026-04-15 16:32 35.30706 -84.15553 31346 ft 488 kts
2026-04-15 16:32 35.34007 -84.14739 31463 ft 488 kts
2026-04-15 16:33 35.37324 -84.13920 31600 ft 488 kts
2026-04-15 16:33 35.40662 -84.13096 31718 ft 488 kts
2026-04-15 16:33 35.44010 -84.12267 31832 ft 488 kts
2026-04-15 16:34 35.50075 -84.10761 32049 ft 488 kts
2026-04-15 16:34 35.53407 -84.09936 32181 ft 488 kts
2026-04-15 16:34 35.56740 -84.09111 32298 ft 488 kts
2026-04-15 16:34 35.60075 -84.08288 32426 ft 488 kts
2026-04-15 16:35 35.63404 -84.07465 32572 ft 488 kts
2026-04-15 16:35 35.66692 -84.06649 32694 ft 488 kts
2026-04-15 16:35 35.70023 -84.05822 32828 ft 488 kts
2026-04-15 16:35 35.73345 -84.04995 32960 ft 488 kts
2026-04-15 16:36 35.76676 -84.04163 33080 ft 487 kts
2026-04-15 16:36 35.80001 -84.03333 33220 ft 487 kts
2026-04-15 16:36 35.83325 -84.02507 33341 ft 487 kts
2026-04-15 16:36 35.86648 -84.01681 33456 ft 487 kts
2026-04-15 16:37 35.89963 -84.00816 33593 ft 489 kts
2026-04-15 16:37 35.93144 -83.99179 33730 ft 501 kts 24°
2026-04-15 16:37 35.96178 -83.97051 33867 ft 502 kts 24°
2026-04-15 16:37 35.99200 -83.94887 33999 ft 502 kts 25°
2026-04-15 16:38 36.02209 -83.92712 34131 ft 502 kts 25°
2026-04-15 16:38 36.05221 -83.90532 34245 ft 501 kts 25°
2026-04-15 16:38 36.08236 -83.88360 34357 ft 500 kts 24°
2026-04-15 16:38 36.11244 -83.86205 34480 ft 500 kts 24°
2026-04-15 16:39 36.14247 -83.84060 34589 ft 499 kts 24°
2026-04-15 16:39 36.17252 -83.81917 34699 ft 498 kts 24°
2026-04-15 16:39 36.20222 -83.79797 34813 ft 498 kts 24°
2026-04-15 16:39 36.23221 -83.77652 34922 ft 498 kts 24°
2026-04-15 16:40 36.26218 -83.75497 35034 ft 497 kts 24°
2026-04-15 16:40 36.29207 -83.73344 35147 ft 497 kts 24°
2026-04-15 16:40 36.32197 -83.71189 35265 ft 496 kts 24°
2026-04-15 16:40 36.35190 -83.69036 35398 ft 496 kts 24°
2026-04-15 16:41 36.38174 -83.66890 35522 ft 496 kts 24°
2026-04-15 16:41 36.41153 -83.64742 35641 ft 495 kts 24°
2026-04-15 16:41 36.44135 -83.62586 35763 ft 495 kts 24°
2026-04-15 16:42 36.49066 -83.59013 35963 ft 494 kts 24°
2026-04-15 16:42 36.52034 -83.56863 36085 ft 493 kts 24°
2026-04-15 16:42 36.54992 -83.54720 36211 ft 492 kts 24°
2026-04-15 16:42 36.57953 -83.52573 36336 ft 491 kts 24°
2026-04-15 16:43 36.60905 -83.50432 36463 ft 490 kts 24°
2026-04-15 16:43 36.63847 -83.48297 36590 ft 489 kts 24°
2026-04-15 16:43 36.66778 -83.46169 36715 ft 488 kts 24°
2026-04-15 16:43 36.69711 -83.44037 36833 ft 487 kts 24°
2026-04-15 16:44 36.72638 -83.41907 36964 ft 486 kts 24°
2026-04-15 16:44 36.75551 -83.39783 37112 ft 485 kts 24°
2026-04-15 16:44 36.78469 -83.37657 37149 ft 486 kts 24°
2026-04-15 16:45 36.84345 -83.33365 37136 ft 491 kts 24°
2026-04-15 16:45 36.90222 -83.29029 37147 ft 493 kts 24°
2026-04-15 16:46 36.96125 -83.24676 37130 ft 495 kts 24°
2026-04-15 16:46 37.01771 -83.20526 37140 ft 496 kts 24°
2026-04-15 16:47 37.07733 -83.16127 37132 ft 498 kts 24°
2026-04-15 16:47 37.13695 -83.11700 37118 ft 498 kts 25°
2026-04-15 16:48 37.19659 -83.07266 37121 ft 498 kts 24°
2026-04-15 16:48 37.25587 -83.02862 37113 ft 498 kts 24°
2026-04-15 16:49 37.31662 -82.98687 37149 ft 496 kts 21°
2026-04-15 16:49 37.37820 -82.94790 37144 ft 495 kts 20°
2026-04-15 16:50 37.43984 -82.90862 37130 ft 496 kts 21°
2026-04-15 16:50 37.50112 -82.86821 37157 ft 497 kts 21°
2026-04-15 16:51 37.56227 -82.82741 37155 ft 497 kts 21°
2026-04-15 16:51 37.62315 -82.78706 37141 ft 498 kts 21°
2026-04-15 16:52 37.68449 -82.74666 37144 ft 498 kts 21°
2026-04-15 16:52 37.74588 -82.70603 37161 ft 498 kts 21°
2026-04-15 16:53 37.80715 -82.66530 37155 ft 498 kts 21°
2026-04-15 16:53 37.86847 -82.62452 37145 ft 498 kts 21°
2026-04-15 16:54 37.92981 -82.58361 37126 ft 498 kts 21°
2026-04-15 16:54 37.99107 -82.54270 37101 ft 498 kts 21°
2026-04-15 16:55 38.05200 -82.50198 37095 ft 498 kts 21°
2026-04-15 16:55 38.11326 -82.46086 37085 ft 498 kts 21°
2026-04-15 16:56 38.17455 -82.41963 37080 ft 498 kts 21°
2026-04-15 16:56 38.23580 -82.37844 37069 ft 498 kts 21°
2026-04-15 16:57 38.29703 -82.33715 37075 ft 498 kts 21°
2026-04-15 16:57 38.35818 -82.29574 37077 ft 497 kts 21°
2026-04-15 16:58 38.41885 -82.25458 37090 ft 497 kts 22°
2026-04-15 16:58 38.47999 -82.21315 37085 ft 497 kts 22°
2026-04-15 16:59 38.54119 -82.17163 37080 ft 497 kts 22°
2026-04-15 16:59 38.60240 -82.13006 37075 ft 498 kts 22°
2026-04-15 17:00 38.66357 -82.08826 37091 ft 498 kts 22°
2026-04-15 17:00 38.72424 -82.04668 37085 ft 498 kts 22°
2026-04-15 17:01 38.78407 -82.00117 37083 ft 502 kts 27°
2026-04-15 17:01 38.84248 -81.95166 37083 ft 503 kts 27°
2026-04-15 17:02 38.90081 -81.90203 37093 ft 503 kts 27°
2026-04-15 17:02 38.95928 -81.85240 37086 ft 503 kts 27°
2026-04-15 17:03 39.01774 -81.80268 37082 ft 504 kts 27°
2026-04-15 17:03 39.07613 -81.75284 37098 ft 504 kts 26°
2026-04-15 17:04 39.13464 -81.70279 37089 ft 505 kts 27°
2026-04-15 17:04 39.19279 -81.65295 37060 ft 505 kts 27°
2026-04-15 17:05 39.25129 -81.60267 37062 ft 505 kts 27°
2026-04-15 17:05 39.30973 -81.55235 37111 ft 505 kts 27°
2026-04-15 17:06 39.36828 -81.50180 37096 ft 506 kts 27°
2026-04-15 17:06 39.42689 -81.45118 37064 ft 506 kts 27°
2026-04-15 17:07 39.48542 -81.40061 37058 ft 506 kts 27°
2026-04-15 17:07 39.54363 -81.35013 37071 ft 507 kts 27°
2026-04-15 17:08 39.60225 -81.29915 37062 ft 507 kts 27°
2026-04-15 17:08 39.66068 -81.24831 37052 ft 507 kts 27°
2026-04-15 17:09 39.71933 -81.19722 37083 ft 507 kts 28°
2026-04-15 17:09 39.77776 -81.14615 37071 ft 507 kts 28°
2026-04-15 17:10 39.83626 -81.09486 37062 ft 507 kts 28°
2026-04-15 17:10 39.89474 -81.04349 37055 ft 508 kts 28°
2026-04-15 17:11 39.95323 -80.99188 37069 ft 508 kts 28°
2026-04-15 17:11 40.01195 -80.94004 37059 ft 508 kts 28°
2026-04-15 17:12 40.09980 -80.86249 37053 ft 508 kts 29°
2026-04-15 17:12 40.15789 -80.81089 37071 ft 508 kts 29°
2026-04-15 17:13 40.21666 -80.75861 37065 ft 509 kts 29°
2026-04-15 17:13 40.27491 -80.70679 37060 ft 509 kts 29°
2026-04-15 17:14 40.33378 -80.65438 37052 ft 509 kts 29°
2026-04-15 17:14 40.39235 -80.60201 37042 ft 509 kts 29°
2026-04-15 17:15 40.45076 -80.54965 37047 ft 510 kts 29°
2026-04-15 17:15 40.50918 -80.49712 37045 ft 512 kts 29°
2026-04-15 17:16 40.56820 -80.44411 37054 ft 513 kts 29°
2026-04-15 17:16 40.62704 -80.39102 37050 ft 514 kts 29°
2026-04-15 17:17 40.68615 -80.33757 37050 ft 513 kts 29°
2026-04-15 17:17 40.74255 -80.28654 37051 ft 514 kts 28°
2026-04-15 17:18 40.80146 -80.23307 37034 ft 514 kts 29°
2026-04-15 17:18 40.85744 -80.17316 37052 ft 520 kts 37°
2026-04-15 17:19 40.91037 -80.10979 36977 ft 498 kts 37°
2026-04-15 17:19 40.93557 -80.07933 36794 ft 486 kts 37°
2026-04-15 17:19 40.96039 -80.04940 36392 ft 480 kts 37°
2026-04-15 17:20 40.98496 -80.01983 35921 ft 476 kts 37°
2026-04-15 17:20 41.00939 -79.99057 35428 ft 472 kts 37°
2026-04-15 17:20 41.03369 -79.96149 34940 ft 469 kts 37°
2026-04-15 17:20 41.05786 -79.93251 34470 ft 467 kts 37°
2026-04-15 17:21 41.08185 -79.90369 33998 ft 464 kts 38°
2026-04-15 17:21 41.10543 -79.87530 33487 ft 462 kts 38°
2026-04-15 17:21 41.12911 -79.84670 33020 ft 460 kts 38°
2026-04-15 17:21 41.15273 -79.81815 32521 ft 457 kts 38°
2026-04-15 17:22 41.17616 -79.78978 32042 ft 455 kts 38°
2026-04-15 17:22 41.19942 -79.76156 31614 ft 451 kts 38°
2026-04-15 17:22 41.22249 -79.73352 31182 ft 448 kts 39°
2026-04-15 17:22 41.24550 -79.70551 30742 ft 445 kts 39°
2026-04-15 17:23 41.26830 -79.67777 30303 ft 443 kts 39°
2026-04-15 17:23 41.29073 -79.65052 29863 ft 440 kts 39°
2026-04-15 17:23 41.31324 -79.62317 29416 ft 437 kts 39°
2026-04-15 17:23 41.33561 -79.59599 28984 ft 434 kts 39°
2026-04-15 17:24 41.35778 -79.56902 28557 ft 430 kts 39°
2026-04-15 17:24 41.37976 -79.54221 28133 ft 427 kts 39°
2026-04-15 17:24 41.40158 -79.51556 27704 ft 424 kts 39°
2026-04-15 17:24 41.42324 -79.48901 27292 ft 421 kts 39°
2026-04-15 17:25 41.44469 -79.46266 26871 ft 418 kts 39°
2026-04-15 17:25 41.46602 -79.43645 26452 ft 415 kts 39°
2026-04-15 17:25 41.48721 -79.41047 26047 ft 412 kts 39°
2026-04-15 17:25 41.50820 -79.38475 25678 ft 408 kts 39°
2026-04-15 17:26 41.52912 -79.35911 25122 ft 410 kts 39°
2026-04-15 17:26 41.55025 -79.33319 24496 ft 414 kts 39°
2026-04-15 17:26 41.57145 -79.30712 24033 ft 414 kts 39°
2026-04-15 17:26 41.59251 -79.28113 23626 ft 411 kts 39°
2026-04-15 17:27 41.61342 -79.25526 23160 ft 408 kts 39°
2026-04-15 17:27 41.63417 -79.22958 22701 ft 405 kts 39°
2026-04-15 17:27 41.65476 -79.20409 22261 ft 402 kts 39°
2026-04-15 17:27 41.67524 -79.17873 21977 ft 400 kts 38°
2026-04-15 17:28 41.69563 -79.15347 21983 ft 400 kts 38°
2026-04-15 17:28 41.71585 -79.12847 21978 ft 400 kts 38°
2026-04-15 17:28 41.73633 -79.10314 21977 ft 401 kts 38°
2026-04-15 17:28 41.75681 -79.07782 21977 ft 401 kts 38°
2026-04-15 17:29 41.77728 -79.05245 21971 ft 400 kts 38°
2026-04-15 17:29 41.79767 -79.02712 21974 ft 400 kts 38°
2026-04-15 17:29 41.81806 -79.00178 21975 ft 399 kts 38°
2026-04-15 17:29 41.83840 -78.97642 21975 ft 399 kts 38°
2026-04-15 17:30 41.85869 -78.95106 21975 ft 399 kts 38°
2026-04-15 17:30 41.87901 -78.92560 21991 ft 399 kts 38°
2026-04-15 17:30 41.89932 -78.90015 21979 ft 399 kts 38°
2026-04-15 17:30 41.91966 -78.87474 21969 ft 400 kts 38°
2026-04-15 17:31 41.94002 -78.84932 21968 ft 400 kts 38°
2026-04-15 17:31 41.96028 -78.82398 21690 ft 397 kts 38°
2026-04-15 17:31 41.98038 -78.79877 21251 ft 394 kts 38°
2026-04-15 17:31 42.00040 -78.77363 20914 ft 393 kts 38°
2026-04-15 17:32 42.01357 -78.75707 20683 ft 391 kts 38°
2026-04-15 17:32 42.03341 -78.73213 20367 ft 388 kts 37°
2026-04-15 17:32 42.05310 -78.70737 20030 ft 386 kts 37°
2026-04-15 17:32 42.07264 -78.68276 19701 ft 383 kts 37°
2026-04-15 17:33 42.09203 -78.65832 19366 ft 380 kts 36°
2026-04-15 17:33 42.11131 -78.63406 19033 ft 378 kts 36°
2026-04-15 17:33 42.13048 -78.60990 18702 ft 376 kts 36°
2026-04-15 17:33 42.14954 -78.58587 18378 ft 374 kts 36°
2026-04-15 17:34 42.16850 -78.56194 18031 ft 372 kts 36°
2026-04-15 17:34 42.18736 -78.53808 17663 ft 370 kts 36°
2026-04-15 17:34 42.20583 -78.51467 17365 ft 368 kts 36°
2026-04-15 17:34 42.22471 -78.49073 17008 ft 367 kts 36°
2026-04-15 17:35 42.24307 -78.46744 16657 ft 366 kts 36°
2026-04-15 17:35 42.26155 -78.44392 16306 ft 364 kts 37°
2026-04-15 17:35 42.27993 -78.42050 15959 ft 363 kts 36°
2026-04-15 17:35 42.29832 -78.39708 15616 ft 362 kts 36°
2026-04-15 17:36 42.31665 -78.37374 15272 ft 361 kts 36°
2026-04-15 17:36 42.33491 -78.35048 14939 ft 360 kts 36°
2026-04-15 17:36 42.35308 -78.32732 14601 ft 359 kts 36°
2026-04-15 17:36 42.37123 -78.30419 14269 ft 358 kts 36°
2026-04-15 17:37 42.38933 -78.28111 13936 ft 357 kts 36°
2026-04-15 17:37 42.40733 -78.25812 13585 ft 356 kts 36°
2026-04-15 17:37 42.42530 -78.23514 13237 ft 355 kts 36°
2026-04-15 17:37 42.44318 -78.21228 12865 ft 352 kts 36°
2026-04-15 17:38 42.46094 -78.18953 12504 ft 351 kts 36°
2026-04-15 17:38 42.47859 -78.16683 12145 ft 349 kts 36°
2026-04-15 17:38 42.49614 -78.14427 11787 ft 347 kts 36°
2026-04-15 17:38 42.51362 -78.12185 11434 ft 345 kts 36°
2026-04-15 17:39 42.53075 -78.09984 11091 ft 343 kts 36°
2026-04-15 17:39 42.54802 -78.07768 10752 ft 341 kts 36°
2026-04-15 17:39 42.56520 -78.05560 10418 ft 339 kts 36°
2026-04-15 17:39 42.58225 -78.03363 10086 ft 337 kts 36°
2026-04-15 17:40 42.59909 -78.01189 9750 ft 328 kts 37°
2026-04-15 17:40 42.61531 -77.99086 9399 ft 319 kts 36°
2026-04-15 17:40 42.63136 -77.97009 9038 ft 316 kts 36°
2026-04-15 17:40 42.64725 -77.94960 8667 ft 313 kts 36°
2026-04-15 17:41 42.66294 -77.92936 8325 ft 310 kts 37°
2026-04-15 17:41 42.67833 -77.90941 7985 ft 310 kts 37°
2026-04-15 17:41 42.69382 -77.88931 7639 ft 306 kts 38°
2026-04-15 17:41 42.70918 -77.86939 7305 ft 304 kts 38°
2026-04-15 17:42 42.72439 -77.84965 6966 ft 300 kts 38°
2026-04-15 17:42 42.73941 -77.83017 6627 ft 297 kts 39°
2026-04-15 17:42 42.75431 -77.81081 6316 ft 295 kts 39°
2026-04-15 17:42 42.76903 -77.79167 6051 ft 288 kts 39°
2026-04-15 17:43 42.78315 -77.77324 6039 ft 274 kts 38°
2026-04-15 17:43 42.79685 -77.75538 6041 ft 272 kts 38°
2026-04-15 17:43 42.81054 -77.73761 6040 ft 272 kts 38°
2026-04-15 17:43 42.82421 -77.71985 6031 ft 272 kts 38°
2026-04-15 17:44 42.83787 -77.70211 6036 ft 271 kts 38°
2026-04-15 17:44 42.85156 -77.68431 6029 ft 272 kts 38°
2026-04-15 17:44 42.86521 -77.66648 6029 ft 271 kts 38°
2026-04-15 17:44 42.87884 -77.64865 6021 ft 272 kts 38°
2026-04-15 17:45 42.89247 -77.63078 6033 ft 272 kts 38°
2026-04-15 17:45 42.90610 -77.61290 6035 ft 272 kts 38°
2026-04-15 17:45 42.91975 -77.59505 6027 ft 271 kts 38°
2026-04-15 17:45 42.93326 -77.57733 5776 ft 268 kts 39°
2026-04-15 17:46 42.94643 -77.56001 5476 ft 266 kts 39°
2026-04-15 17:46 42.95996 -77.54228 5161 ft 265 kts 39°
2026-04-15 17:46 42.97304 -77.52517 4873 ft 263 kts 39°
2026-04-15 17:46 42.98617 -77.50792 4586 ft 260 kts 40°
2026-04-15 17:47 42.99916 -77.49079 4299 ft 258 kts 40°
2026-04-15 17:47 43.01178 -77.47410 4171 ft 248 kts 40°
2026-04-15 17:47 43.02400 -77.45794 4046 ft 240 kts 39°
2026-04-15 17:47 43.03593 -77.44221 3821 ft 238 kts 40°
2026-04-15 17:48 43.04779 -77.42662 3582 ft 235 kts 40°
2026-04-15 17:48 43.05956 -77.41121 3314 ft 235 kts 39°
2026-04-15 17:48 43.07138 -77.39570 3026 ft 235 kts 39°
2026-04-15 17:48 43.08303 -77.38031 2775 ft 232 kts 39°
2026-04-15 17:49 43.09459 -77.36502 2562 ft 230 kts 40°
2026-04-15 17:49 43.10700 -77.35190 2434 ft 219 kts 13°
2026-04-15 17:49 43.12100 -77.35152 2262 ft 193 kts 329°
2026-04-15 17:49 43.12939 -77.36387 2065 ft 179 kts 282°
2026-04-15 17:50 43.13058 -77.38083 2027 ft 184 kts 272°
2026-04-15 17:50 43.13129 -77.39791 2028 ft 172 kts 272°
2026-04-15 17:50 43.13148 -77.41385 2015 ft 166 kts 267°
2026-04-15 17:50 43.13046 -77.42957 2039 ft 167 kts 266°
2026-04-15 17:51 43.12980 -77.44538 2041 ft 165 kts 266°
2026-04-15 17:51 43.12927 -77.46091 2032 ft 162 kts 266°
2026-04-15 17:51 43.12878 -77.47624 2042 ft 161 kts 266°
2026-04-15 17:51 43.12830 -77.49154 2041 ft 161 kts 268°
2026-04-15 17:52 43.12784 -77.50707 2040 ft 165 kts 268°
2026-04-15 17:52 43.12737 -77.52278 2034 ft 166 kts 268°
2026-04-15 17:52 43.12689 -77.53840 2042 ft 161 kts 267°
2026-04-15 17:52 43.12643 -77.55348 2064 ft 148 kts 267°
2026-04-15 17:53 43.12605 -77.56640 1961 ft 131 kts 267°
2026-04-15 17:53 43.12569 -77.57851 1739 ft 126 kts 267°
2026-04-15 17:53 43.12534 -77.59036 1547 ft 123 kts 268°
2026-04-15 17:53 43.12499 -77.60237 1382 ft 126 kts 266°
2026-04-15 17:54 43.12471 -77.61411 1173 ft 119 kts 268°
2026-04-15 17:54 43.12439 -77.62536 1008 ft 119 kts 268°
2026-04-15 17:54 43.12409 -77.63684 860 ft 121 kts 267°
2026-04-15 17:54 43.12370 -77.64805 687 ft 114 kts 268°
2026-04-15 17:55 43.12336 -77.65880 562 ft 109 kts 269°
2026-04-15 17:55 43.12312 -77.66711 570 ft 62 kts 268°
2026-04-15 17:55 43.12302 -77.67049 562 ft 17 kts 278°
2026-04-15 17:55 43.12398 -77.67077 566 ft 16 kts 41°
2026-04-15 17:56 43.12414 -77.66940 561 ft 14 kts 89°
2026-04-15 17:56 43.12458 -77.66835 564 ft 15 kts 12°